Location: Zagreb
(45.8000°N, 16.0000°E)
Time: 15:30:23
(UTC+01:00)

Tiros 1 despin weight - Pass Details

Date: 04 December 2023
Orbit: 581 x 624 km, 48.2° (Epoch: 02 March)

Event Time Altitude Azimuth Distance (km) Brightness Sun altitude
Rises 18:10:29 0° 226° (SW) 2,797 ? -19.9°
Reaches altitude 10° 18:12:50 10° 220° (SW) 1,895 ? -20.3°
Maximum altitude 18:16:56 43° 149° (SSE) 826 ? -21.0°
Enters shadow 18:17:11 42° 139° (SE) 832 ? -21.0°
